TimeEST,TemperatureF,Dew PointF,Humidity,Sea Level PressureIn,VisibilityMPH,Wind Direction,Wind SpeedMPH,Gust SpeedMPH,PrecipitationIn,Events,Conditions,WindDirDegrees,DateUTC
12:15 AM,37.4,33.8,87,30.04,10.0,Calm,Calm,-,N/A,,Overcast,0,2012-12-07 05:15:00
12:35 AM,39.2,35.6,87,30.03,10.0,Calm,Calm,-,N/A,,Overcast,0,2012-12-07 05:35:00
12:55 AM,39.2,33.8,81,30.03,10.0,Calm,Calm,-,N/A,,Overcast,0,2012-12-07 05:55:00
1:15 AM,39.2,35.6,87,30.03,10.0,Calm,Calm,-,N/A,,Overcast,0,2012-12-07 06:15:00
1:35 AM,41.0,35.6,81,30.02,10.0,Calm,Calm,-,N/A,,Overcast,0,2012-12-07 06:35:00
1:55 AM,39.2,37.4,93,30.02,9.0,Calm,Calm,-,N/A,,Overcast,0,2012-12-07 06:55:00
2:15 AM,39.2,37.4,93,30.02,10.0,Calm,Calm,-,N/A,,Overcast,0,2012-12-07 07:15:00
2:35 AM,39.2,37.4,93,30.02,8.0,Calm,Calm,-,N/A,,Overcast,0,2012-12-07 07:35:00
2:55 AM,41.0,39.2,93,30.02,4.0,Calm,Calm,-,N/A,,Overcast,0,2012-12-07 07:55:00
3:15 AM,39.2,37.4,93,30.02,5.0,Calm,Calm,-,N/A,,Overcast,0,2012-12-07 08:15:00
3:35 AM,39.2,39.2,100,30.01,10.0,Calm,Calm,-,N/A,,Overcast,0,2012-12-07 08:35:00
3:55 AM,41.0,39.2,93,30.00,5.0,Calm,Calm,-,N/A,,Overcast,0,2012-12-07 08:55:00
4:15 AM,42.8,41.0,93,30.00,9.0,Calm,Calm,-,N/A,,Overcast,0,2012-12-07 09:15:00
4:35 AM,42.8,41.0,93,29.99,10.0,Calm,Calm,-,N/A,,Overcast,0,2012-12-07 09:35:00
4:55 AM,42.8,41.0,93,29.98,10.0,Calm,Calm,-,N/A,,Overcast,0,2012-12-07 09:55:00
5:15 AM,42.8,41.0,93,30.00,7.0,NW,10.4,-,N/A,,Mostly Cloudy,320,2012-12-07 10:15:00
5:35 AM,42.8,42.8,100,30.00,5.0,SSE,4.6,-,N/A,,Overcast,150,2012-12-07 10:35:00
5:55 AM,42.8,42.8,100,30.00,3.0,Calm,Calm,-,N/A,,Overcast,0,2012-12-07 10:55:00
6:15 AM,42.8,42.8,100,30.00,4.0,Calm,Calm,-,N/A,,Overcast,0,2012-12-07 11:15:00
6:35 AM,44.6,42.8,93,30.01,5.0,Calm,Calm,-,N/A,,Mostly Cloudy,0,2012-12-07 11:35:00
6:55 AM,44.6,42.8,93,30.01,5.0,South,3.5,-,N/A,,Overcast,190,2012-12-07 11:55:00
7:15 AM,44.6,44.6,100,30.01,7.0,Calm,Calm,-,N/A,,Overcast,0,2012-12-07 12:15:00
7:35 AM,44.6,42.8,93,30.00,5.0,Calm,Calm,-,N/A,,Mostly Cloudy,0,2012-12-07 12:35:00
7:55 AM,44.6,42.8,93,30.00,2.0,Calm,Calm,-,N/A,,Overcast,0,2012-12-07 12:55:00
8:15 AM,46.4,44.6,93,29.98,4.0,SSE,5.8,-,N/A,,Overcast,160,2012-12-07 13:15:00
8:35 AM,46.4,46.4,100,30.00,5.0,SW,3.5,-,N/A,,Overcast,220,2012-12-07 13:35:00
8:55 AM,46.4,44.6,93,30.01,5.0,SW,3.5,-,N/A,,Overcast,220,2012-12-07 13:55:00
9:15 AM,48.2,48.2,100,30.01,10.0,SW,5.8,-,N/A,,Overcast,230,2012-12-07 14:15:00
9:35 AM,48.2,48.2,100,30.01,10.0,SSW,5.8,-,N/A,,Overcast,210,2012-12-07 14:35:00
9:55 AM,50.0,48.2,94,30.02,9.0,SW,8.1,-,N/A,,Overcast,230,2012-12-07 14:55:00
10:15 AM,50.0,48.2,94,30.02,4.0,WSW,8.1,-,N/A,,Overcast,240,2012-12-07 15:15:00
10:35 AM,50.0,48.2,94,30.02,7.0,WSW,6.9,-,N/A,,Overcast,240,2012-12-07 15:35:00
10:55 AM,50.0,48.2,94,30.02,7.0,WSW,5.8,-,N/A,,Overcast,240,2012-12-07 15:55:00
11:15 AM,50.0,48.2,94,30.01,7.0,SW,6.9,-,N/A,,Overcast,230,2012-12-07 16:15:00
11:35 AM,50.0,48.2,94,30.01,8.0,SW,8.1,-,N/A,,Overcast,230,2012-12-07 16:35:00
11:55 AM,50.0,48.2,94,30.00,8.0,SW,6.9,-,N/A,,Overcast,230,2012-12-07 16:55:00
12:15 PM,50.0,48.2,94,30.00,10.0,SW,6.9,-,N/A,,Overcast,230,2012-12-07 17:15:00
12:35 PM,50.0,48.2,94,30.00,10.0,WSW,4.6,-,N/A,,Overcast,240,2012-12-07 17:35:00
12:55 PM,50.0,48.2,94,29.98,10.0,WSW,5.8,-,N/A,,Overcast,240,2012-12-07 17:55:00
1:15 PM,51.8,48.2,88,29.98,10.0,SW,4.6,-,N/A,,Overcast,230,2012-12-07 18:15:00
1:35 PM,51.8,48.2,88,29.97,8.0,West,3.5,-,N/A,,Overcast,260,2012-12-07 18:35:00
1:55 PM,51.8,48.2,88,29.97,10.0,Calm,Calm,-,N/A,,Overcast,0,2012-12-07 18:55:00
2:15 PM,51.8,48.2,88,29.96,10.0,Calm,Calm,-,N/A,,Overcast,0,2012-12-07 19:15:00
2:35 PM,51.8,48.2,88,29.96,8.0,Calm,Calm,-,N/A,,Overcast,0,2012-12-07 19:35:00
2:55 PM,51.8,48.2,88,29.96,6.0,Calm,Calm,-,N/A,,Overcast,0,2012-12-07 19:55:00
3:15 PM,51.8,48.2,88,29.96,5.0,Calm,Calm,-,N/A,,Overcast,0,2012-12-07 20:15:00
3:35 PM,51.8,48.2,88,29.96,3.0,Calm,Calm,-,N/A,,Overcast,0,2012-12-07 20:35:00
3:55 PM,50.0,48.2,94,29.96,3.0,Calm,Calm,-,N/A,,Overcast,0,2012-12-07 20:55:00
4:15 PM,50.0,48.2,94,29.96,3.0,Calm,Calm,-,N/A,,Overcast,0,2012-12-07 21:15:00
4:35 PM,50.0,48.2,94,29.96,1.8,Calm,Calm,-,N/A,,Overcast,0,2012-12-07 21:35:00
4:55 PM,50.0,48.2,94,29.96,2.0,Calm,Calm,-,N/A,,Overcast,0,2012-12-07 21:55:00
5:15 PM,50.0,48.2,94,29.95,1.2,Calm,Calm,-,N/A,,Overcast,0,2012-12-07 22:15:00
5:35 PM,48.2,46.4,93,29.95,1.0,Calm,Calm,-,N/A,,Overcast,0,2012-12-07 22:35:00
5:55 PM,48.2,46.4,93,29.95,1.0,Calm,Calm,-,N/A,,Overcast,0,2012-12-07 22:55:00
6:15 PM,48.2,48.2,100,29.94,1.0,Calm,Calm,-,N/A,,Overcast,0,2012-12-07 23:15:00
6:35 PM,48.2,48.2,100,29.94,0.5,Calm,Calm,-,N/A,,Overcast,0,2012-12-07 23:35:00
6:55 PM,48.2,48.2,100,29.94,2.0,Calm,Calm,-,N/A,,Overcast,0,2012-12-07 23:55:00
7:15 PM,48.2,48.2,100,29.94,2.5,Calm,Calm,-,N/A,,Overcast,0,2012-12-08 00:15:00
7:35 PM,48.2,48.2,100,29.94,2.5,Calm,Calm,-,N/A,,Overcast,0,2012-12-08 00:35:00
8:15 PM,48.2,48.2,100,29.93,1.2,Calm,Calm,-,N/A,,Overcast,0,2012-12-08 01:15:00
8:35 PM,48.2,48.2,100,29.94,0.5,Calm,Calm,-,N/A,,Overcast,0,2012-12-08 01:35:00
8:55 PM,48.2,48.2,100,29.92,1.0,East,4.6,-,N/A,,Overcast,90,2012-12-08 01:55:00
9:15 PM,48.2,48.2,100,29.92,1.0,Calm,Calm,-,N/A,,Overcast,0,2012-12-08 02:15:00
9:35 PM,50.0,48.2,94,29.91,7.0,SE,4.6,-,N/A,,Overcast,130,2012-12-08 02:35:00
9:55 PM,48.2,46.4,93,29.91,5.0,Calm,Calm,-,N/A,,Overcast,0,2012-12-08 02:55:00
10:15 PM,50.0,48.2,94,29.89,5.0,ESE,3.5,-,N/A,,Overcast,120,2012-12-08 03:15:00
10:35 PM,48.2,48.2,100,29.90,3.0,Calm,Calm,-,N/A,,Overcast,0,2012-12-08 03:35:00
10:55 PM,50.0,48.2,94,29.90,6.0,Calm,Calm,-,N/A,,Overcast,0,2012-12-08 03:55:00
11:15 PM,50.0,48.2,94,29.89,4.0,Calm,Calm,-,N/A,,Mostly Cloudy,0,2012-12-08 04:15:00
11:35 PM,48.2,46.4,93,29.89,2.5,Calm,Calm,-,N/A,,Mostly Cloudy,0,2012-12-08 04:35:00
11:55 PM,50.0,48.2,94,29.88,4.0,Calm,Calm,-,N/A,,Overcast,0,2012-12-08 04:55:00